Regional Weather Roundup
Issued by NWS

Home | Current Version | Previous Version | Graphics & Text | Print | Product List | Glossary Off
Versions: 1 2 3 4 5 6 7 8 9 10 11 12 13 14 15 16 17 18 19 20 21 22 23 24 25 26 27 28 29 30 31 32 33 34 35 36 37 38 39 40 41 42 43 44 45 46 47 48 49 50

000
ASUS43 KFSD 260010
RWRSD

WEATHER ROUNDUP FOR SOUTH DAKOTA
NATIONAL WEATHER SERVICE SIOUX FALLS SD
600 PM CST SUN JAN 25 2015

NOTE: "FAIR" INDICATES FEW OR NO CLOUDS BELOW 12,000 FEET WITH NO
SIGNIFICANT WEATHER AND/OR OBSTRUCTIONS TO VISIBILITY.


SDZ001>005-009-010-012>017-260100-
NORTHWEST AND NORTH CENTRAL SOUTH DAKOTA

CITY           SKY/WX    TMP DP  RH WIND       PRES   REMARKS
BUFFALO          N/A     45  34  65 W13       29.84S
FAITH            N/A     41  26  55 S9        29.92S
MOBRIDGE       CLOUDY    38  31  76 S3        29.91F
$$

SDZ012>016-024>037-041>051-057-063-072>074-260100-
SOUTHWEST AND SOUTH CENTRAL SOUTH DAKOTA

CITY           SKY/WX    TMP DP  RH WIND       PRES   REMARKS
RAPID CTY ARPT MOCLDY    43  23  45 SE5       29.95S
PIERRE         MOCLDY    37  28  70 S5        29.97S
CUSTER         CLEAR     40  30  67 W12       30.00R
ELLSWORTH AFB  PTCLDY    45  22  41 S2        29.94S
PHILIP         CLOUDY    44  24  45 SW6       29.95F
PINE RIDGE     CLOUDY    43  33  68 SW9       29.99F
SPEARFISH      MOCLDY    48  32  53 W15       29.97S
WINNER         FAIR      36  29  75 S7        30.00F
$$

SDZ004>011-016>023-039-040-260100-
NORTHEAST SOUTH DAKOTA

CITY           SKY/WX    TMP DP  RH WIND       PRES   REMARKS
ABERDEEN       CLOUDY    31  28  89 S9        29.98F WCI  23
WATERTOWN      CLOUDY    30  27  88 W8        29.97S WCI  22
SISSETON         N/A     24  21  88 SE6       29.98F WCI  17
$$

SDZ017-020-022-023-036>040-048>070-260100-
SOUTHEAST SOUTH DAKOTA

CITY           SKY/WX    TMP DP  RH WIND       PRES   REMARKS
SIOUX FALLS    CLOUDY    33  30  88 W3        30.02F
HURON          CLOUDY    33  30  88 S5        30.01F WCI  29
CHAMBERLAIN    CLEAR     32  30  91 S3        30.00F
MITCHELL       CLOUDY    35  31  85 S5        30.02F
YANKTON        CLOUDY    36  30  80 CALM      30.06S
$$

ABBREVIATIONS USED IN REMARKS
   TC - TEMPERATURE IN CELSIUS
  WCI - WIND CHILL INDEX
   HX - HEAT INDEX
  VSB - VISIBILITY



USA.gov is the U.S. government's official web portal to all federal, state and local government web resources and services.